Location: Knobs
(40.8333°S, 175.2333°E)
Time: 02:26:46
(UTC+00:00)

Cosmos 1943 - Pass Details

Date: 12 June 2024
Orbit: 834 x 847 km, 71.0° (Epoch: 22 July)

Event Time Altitude Azimuth Distance (km) Brightness Sun altitude
Exits shadow 16:35:59 20° 19° (NNE) 1,851 5.1 -34.1°
Maximum altitude 16:39:18 38° 75° (ENE) 1,267 4.4 -33.4°
Drops below altitude 10° 16:44:32 10° 141° (SE) 2,492 6.0 -32.5°
Sets 16:47:09 0° 148° (SSE) 3,437 6.7 -32.0°
